Year,Month,Day,Hour,Minute,Value (Times are PST for temperature in C)
2008,11,12,09,15,12.70
2008,11,12,09,16,12.80
2008,11,12,09,17,12.80
2008,11,12,09,18,12.80
2008,11,12,09,19,12.80
2008,11,12,09,20,12.80
2008,11,12,09,21,12.80
2008,11,12,09,22,12.80
2008,11,12,09,23,12.80
2008,11,12,09,24,12.80
2008,11,12,09,25,12.80
2008,11,12,09,26,12.80
2008,11,12,09,27,12.80
2008,11,12,09,28,12.80
2008,11,12,09,29,12.80
2008,11,12,09,30,12.80
2008,11,12,09,31,12.80
2008,11,12,09,32,12.80
2008,11,12,09,33,12.80
2008,11,12,09,34,12.80
2008,11,12,09,35,12.80
2008,11,12,09,36,12.80
2008,11,12,09,37,12.80
2008,11,12,09,38,12.80
2008,11,12,09,39,12.80
2008,11,12,09,40,12.80
2008,11,12,09,41,12.80
2008,11,12,09,42,12.80
2008,11,12,09,43,12.80
2008,11,12,09,44,12.70
2008,11,12,09,45,12.70
2008,11,12,09,46,12.60
2008,11,12,09,47,12.60
2008,11,12,09,48,12.60
2008,11,12,09,49,12.60
2008,11,12,09,50,12.60
2008,11,12,09,51,12.50
2008,11,12,09,52,12.50
2008,11,12,09,53,12.60
2008,11,12,09,54,12.60
2008,11,12,09,55,12.60
2008,11,12,09,56,12.60
2008,11,12,09,57,12.60
2008,11,12,09,58,12.60
2008,11,12,09,59,12.60
2008,11,12,10,00,12.70
2008,11,12,10,01,12.60
2008,11,12,10,02,12.60
2008,11,12,10,03,12.60
2008,11,12,10,04,12.60
2008,11,12,10,05,12.60
2008,11,12,10,06,12.60
2008,11,12,10,07,12.60
2008,11,12,10,08,12.60
2008,11,12,10,09,12.60
2008,11,12,10,10,12.60
2008,11,12,10,11,12.60
2008,11,12,10,12,12.60
2008,11,12,10,13,12.70
2008,11,12,10,14,12.70
2008,11,12,10,15,12.70
2008,11,12,10,16,12.70
2008,11,12,10,17,12.70
2008,11,12,10,18,12.70
2008,11,12,10,19,12.80
2008,11,12,10,20,12.80
2008,11,12,10,21,12.80
2008,11,12,10,22,12.80
2008,11,12,10,23,12.80
2008,11,12,10,24,12.80
2008,11,12,10,25,12.80
2008,11,12,10,26,12.80
2008,11,12,10,27,12.80
2008,11,12,10,28,12.80
2008,11,12,10,29,12.80
2008,11,12,10,30,12.80
2008,11,12,10,31,12.80
2008,11,12,10,32,12.80
2008,11,12,10,33,12.80
2008,11,12,10,34,12.80
2008,11,12,10,35,12.80
2008,11,12,10,36,12.80
2008,11,12,10,37,12.80
2008,11,12,10,38,12.80
2008,11,12,10,39,12.80
2008,11,12,10,40,12.80
2008,11,12,10,41,12.80
2008,11,12,10,42,12.80
2008,11,12,10,43,12.80
2008,11,12,10,44,12.90
2008,11,12,10,45,12.90
2008,11,12,10,46,12.90
2008,11,12,10,47,12.90
2008,11,12,10,48,12.90
2008,11,12,10,49,12.90
2008,11,12,10,50,12.90
2008,11,12,10,51,12.90
2008,11,12,10,52,12.90
2008,11,12,10,53,12.90
2008,11,12,10,54,12.90
2008,11,12,10,55,12.90
2008,11,12,10,56,12.90
2008,11,12,10,57,12.90
2008,11,12,10,58,12.90
2008,11,12,10,59,13.00
2008,11,12,11,00,13.00
2008,11,12,11,01,13.00
2008,11,12,11,02,13.00
2008,11,12,11,03,13.10
2008,11,12,11,04,13.10
2008,11,12,11,05,13.10
2008,11,12,11,06,13.10
2008,11,12,11,07,13.10
2008,11,12,11,08,13.20
2008,11,12,11,09,13.20
2008,11,12,11,10,13.20
2008,11,12,11,11,13.20
2008,11,12,11,12,13.20
2008,11,12,11,13,13.20
2008,11,12,11,14,13.10
2008,11,12,11,15,13.10
2008,11,12,11,16,13.10
2008,11,12,11,17,13.10
2008,11,12,11,18,13.10
2008,11,12,11,19,13.10
2008,11,12,11,20,13.10
2008,11,12,11,21,13.10
2008,11,12,11,22,13.10
2008,11,12,11,23,13.20
2008,11,12,11,24,13.20
2008,11,12,11,25,13.20
2008,11,12,11,26,13.20
2008,11,12,11,27,13.20
2008,11,12,11,28,13.20
2008,11,12,11,29,13.20
2008,11,12,11,30,13.20
2008,11,12,11,31,13.20
2008,11,12,11,32,13.20
2008,11,12,11,33,13.20
2008,11,12,11,34,13.20
2008,11,12,11,35,13.20
2008,11,12,11,36,13.20
2008,11,12,11,37,13.20
2008,11,12,11,38,13.20
2008,11,12,11,39,13.20
2008,11,12,11,40,13.20
2008,11,12,11,41,13.20
2008,11,12,11,42,13.20
2008,11,12,11,43,13.20
2008,11,12,11,44,13.30
2008,11,12,11,45,13.30
2008,11,12,11,46,13.30
2008,11,12,11,47,13.30
2008,11,12,11,48,13.30
2008,11,12,11,49,13.30
2008,11,12,11,50,13.20
2008,11,12,11,51,13.20
2008,11,12,11,52,13.20
2008,11,12,11,53,13.20
2008,11,12,11,54,13.10
2008,11,12,11,55,13.10
2008,11,12,11,56,13.10
2008,11,12,11,57,13.10
2008,11,12,11,58,13.10
2008,11,12,11,59,13.00
2008,11,12,12,00,13.00
2008,11,12,12,01,13.00
2008,11,12,12,02,13.00
2008,11,12,12,03,13.00
2008,11,12,12,04,13.00
2008,11,12,12,05,13.00
2008,11,12,12,06,13.00
2008,11,12,12,07,13.00
2008,11,12,12,08,13.00
2008,11,12,12,09,12.90
2008,11,12,12,10,12.90
2008,11,12,12,11,12.90
2008,11,12,12,12,12.90
2008,11,12,12,13,12.90
2008,11,12,12,14,12.90
2008,11,12,12,15,12.90
2008,11,12,12,16,12.90
2008,11,12,12,17,12.90
2008,11,12,12,18,12.90
2008,11,12,12,19,12.90
2008,11,12,12,20,12.90
2008,11,12,12,21,12.90
2008,11,12,12,22,12.90
2008,11,12,12,23,12.90
2008,11,12,12,24,12.90
2008,11,12,12,25,12.90
2008,11,12,12,26,12.90
2008,11,12,12,27,12.90
2008,11,12,12,28,12.90
2008,11,12,12,29,12.90
2008,11,12,12,30,12.90
2008,11,12,12,31,12.90
2008,11,12,12,32,12.90
2008,11,12,12,33,12.90
2008,11,12,12,34,12.90
2008,11,12,12,35,12.90
2008,11,12,12,36,12.90
2008,11,12,12,37,12.90
2008,11,12,12,38,12.90
2008,11,12,12,39,12.90
2008,11,12,12,40,12.90
2008,11,12,12,41,12.90
2008,11,12,12,42,12.90
2008,11,12,12,43,12.90
2008,11,12,12,44,12.90
2008,11,12,12,45,12.90
2008,11,12,12,46,12.90
2008,11,12,12,47,12.90
2008,11,12,12,48,12.90
2008,11,12,12,49,12.90
2008,11,12,12,50,12.80
2008,11,12,12,51,12.80
2008,11,12,12,52,12.80
2008,11,12,12,53,12.80
2008,11,12,12,54,12.80
2008,11,12,12,55,12.80
2008,11,12,12,56,12.80
2008,11,12,12,57,12.80
2008,11,12,12,58,12.80
2008,11,12,12,59,12.80
2008,11,12,13,00,12.80
2008,11,12,13,01,12.80
2008,11,12,13,02,12.70
2008,11,12,13,03,12.70
2008,11,12,13,04,12.70
2008,11,12,13,05,12.60
2008,11,12,13,06,12.60
2008,11,12,13,07,12.50
2008,11,12,13,08,12.50
2008,11,12,13,09,12.50
2008,11,12,13,10,12.50
2008,11,12,13,11,12.50
2008,11,12,13,12,12.40
2008,11,12,13,13,12.40
2008,11,12,13,14,12.40
2008,11,12,13,15,12.40
2008,11,12,13,16,12.30
2008,11,12,13,17,12.30
2008,11,12,13,18,12.30
2008,11,12,13,19,12.30
2008,11,12,13,20,12.40
2008,11,12,13,21,12.40
2008,11,12,13,22,12.40
2008,11,12,13,23,12.40
2008,11,12,13,24,12.40
2008,11,12,13,25,12.40
2008,11,12,13,26,12.40
2008,11,12,13,27,12.40
2008,11,12,13,28,12.40
2008,11,12,13,29,12.40
2008,11,12,13,30,12.30
2008,11,12,13,31,12.30
2008,11,12,13,32,12.30
2008,11,12,13,33,12.30
2008,11,12,13,34,12.30
2008,11,12,13,35,12.30
2008,11,12,13,36,12.30
2008,11,12,13,37,12.20
2008,11,12,13,38,12.20
2008,11,12,13,39,12.20
2008,11,12,13,40,12.20
2008,11,12,13,41,12.20
2008,11,12,13,42,12.10
2008,11,12,13,43,12.10
2008,11,12,13,44,12.10
2008,11,12,13,45,12.10
2008,11,12,13,46,12.10
2008,11,12,13,47,12.10
2008,11,12,13,48,12.00
2008,11,12,13,49,12.00
2008,11,12,13,50,12.00
2008,11,12,13,51,12.00
2008,11,12,13,52,12.00
2008,11,12,13,53,12.00
2008,11,12,13,54,12.00
2008,11,12,13,55,12.00
2008,11,12,13,56,12.00
2008,11,12,13,57,12.00
2008,11,12,13,58,11.90
2008,11,12,13,59,11.90
2008,11,12,14,00,11.90
2008,11,12,14,01,11.80
2008,11,12,14,02,11.80
2008,11,12,14,03,11.80
2008,11,12,14,04,11.80
2008,11,12,14,05,11.70
2008,11,12,14,06,11.70
2008,11,12,14,07,11.60
2008,11,12,14,08,11.60
2008,11,12,14,09,11.50
2008,11,12,14,10,11.40
2008,11,12,14,11,11.40
2008,11,12,14,12,11.40
2008,11,12,14,13,11.40
2008,11,12,14,14,11.40
2008,11,12,14,15,11.30
2008,11,12,14,16,11.30
2008,11,12,14,17,11.30
2008,11,12,14,18,11.30
2008,11,12,14,19,11.30
2008,11,12,14,20,11.30
2008,11,12,14,21,11.30
2008,11,12,14,22,11.30
2008,11,12,14,23,11.30
2008,11,12,14,24,11.30
2008,11,12,14,25,11.40
2008,11,12,14,26,11.40
2008,11,12,14,27,11.40
2008,11,12,14,28,11.40
2008,11,12,14,29,11.40
2008,11,12,14,30,11.40
2008,11,12,14,31,11.40
2008,11,12,14,32,11.40
2008,11,12,14,33,11.40
2008,11,12,14,34,11.40
2008,11,12,14,35,11.40
2008,11,12,14,36,11.40
2008,11,12,14,37,11.40
2008,11,12,14,38,11.40
2008,11,12,14,39,11.40
2008,11,12,14,40,11.40
2008,11,12,14,41,11.50
2008,11,12,14,42,11.50
2008,11,12,14,43,11.60
2008,11,12,14,44,11.60
2008,11,12,14,45,11.60
2008,11,12,14,46,11.60
2008,11,12,14,47,11.60
2008,11,12,14,48,11.60
2008,11,12,14,49,11.60
2008,11,12,14,50,11.60
2008,11,12,14,51,11.60
2008,11,12,14,52,11.60
2008,11,12,14,53,11.60
2008,11,12,14,54,11.60
2008,11,12,14,55,11.70
2008,11,12,14,56,11.70
2008,11,12,14,57,11.70
2008,11,12,14,58,11.70
2008,11,12,14,59,11.70
2008,11,12,15,00,11.70
2008,11,12,15,01,11.70
2008,11,12,15,02,11.70
2008,11,12,15,03,11.70
2008,11,12,15,04,11.70
2008,11,12,15,05,11.70
2008,11,12,15,06,11.70
2008,11,12,15,07,11.70
2008,11,12,15,08,11.70
2008,11,12,15,09,11.70
2008,11,12,15,10,11.70
2008,11,12,15,11,11.70
2008,11,12,15,12,11.70
2008,11,12,15,13,11.70
2008,11,12,15,14,11.70
2008,11,12,15,15,11.70
2008,11,12,15,16,11.70
2008,11,12,15,17,11.70
2008,11,12,15,18,11.70
2008,11,12,15,19,11.70
2008,11,12,15,20,11.70
2008,11,12,15,21,11.70
2008,11,12,15,22,11.70
2008,11,12,15,23,11.70
2008,11,12,15,24,11.70
2008,11,12,15,25,11.70
2008,11,12,15,26,11.70
2008,11,12,15,27,11.70
2008,11,12,15,28,11.70
2008,11,12,15,29,11.70
2008,11,12,15,30,11.70
2008,11,12,15,31,11.70
2008,11,12,15,32,11.70
2008,11,12,15,33,11.70
2008,11,12,15,34,11.60
2008,11,12,15,35,11.60
2008,11,12,15,36,11.60
2008,11,12,15,37,11.60
2008,11,12,15,38,11.60
2008,11,12,15,39,11.60
2008,11,12,15,40,11.60
2008,11,12,15,41,11.60
2008,11,12,15,42,11.60
2008,11,12,15,43,11.60
2008,11,12,15,44,11.60
2008,11,12,15,45,11.60
2008,11,12,15,46,11.60
2008,11,12,15,47,11.60
2008,11,12,15,48,11.60
2008,11,12,15,49,11.60
2008,11,12,15,50,11.60
2008,11,12,15,51,11.70
2008,11,12,15,52,11.70
2008,11,12,15,53,11.70
2008,11,12,15,54,11.70
2008,11,12,15,55,11.70
2008,11,12,15,56,11.70
2008,11,12,15,57,11.70
2008,11,12,15,58,11.60
2008,11,12,15,59,11.60
2008,11,12,16,00,11.60
2008,11,12,16,01,11.60
2008,11,12,16,02,11.60
2008,11,12,16,03,11.60
2008,11,12,16,04,11.60
2008,11,12,16,05,11.60
2008,11,12,16,06,11.60
2008,11,12,16,07,11.60
2008,11,12,16,08,11.60
2008,11,12,16,09,11.60
2008,11,12,16,10,11.60
2008,11,12,16,11,11.60
2008,11,12,16,12,11.60
2008,11,12,16,13,11.50
2008,11,12,16,14,11.40
2008,11,12,16,15,11.40
2008,11,12,16,16,11.40
2008,11,12,16,17,11.40
2008,11,12,16,18,11.40
2008,11,12,16,19,11.40
2008,11,12,16,20,11.40
2008,11,12,16,21,11.40
2008,11,12,16,22,11.40
2008,11,12,16,23,11.40
2008,11,12,16,24,11.40
2008,11,12,16,25,11.40
2008,11,12,16,26,11.40
2008,11,12,16,27,11.40
2008,11,12,16,28,11.40
2008,11,12,16,29,11.40
2008,11,12,16,30,11.40
2008,11,12,16,31,11.40
2008,11,12,16,32,11.40
2008,11,12,16,33,11.40
2008,11,12,16,34,11.40
2008,11,12,16,35,11.40
2008,11,12,16,36,11.40
2008,11,12,16,37,11.40
2008,11,12,16,38,11.40
2008,11,12,16,39,11.40
2008,11,12,16,40,11.40
2008,11,12,16,41,11.40
2008,11,12,16,42,11.40
2008,11,12,16,43,11.40
2008,11,12,16,44,11.40
2008,11,12,16,45,11.40
2008,11,12,16,46,11.40
2008,11,12,16,47,11.40
2008,11,12,16,48,11.40
2008,11,12,16,49,11.40
2008,11,12,16,50,11.40
2008,11,12,16,51,11.40
2008,11,12,16,52,11.40
2008,11,12,16,53,11.40
2008,11,12,16,54,11.50
2008,11,12,16,55,11.60
2008,11,12,16,56,11.50
2008,11,12,16,57,11.40
2008,11,12,16,58,11.40
2008,11,12,16,59,11.40
2008,11,12,17,00,11.40
2008,11,12,17,01,11.40
2008,11,12,17,02,11.40
2008,11,12,17,03,11.40
2008,11,12,17,04,11.40
2008,11,12,17,05,11.40
2008,11,12,17,06,11.40
2008,11,12,17,07,11.40
2008,11,12,17,08,11.40
2008,11,12,17,09,11.40
2008,11,12,17,10,11.40
2008,11,12,17,11,11.40
2008,11,12,17,12,11.40
2008,11,12,17,13,11.40
2008,11,12,17,14,11.40
2008,11,12,17,15,11.40
2008,11,12,17,16,11.40
2008,11,12,17,17,11.40
2008,11,12,17,18,11.40
2008,11,12,17,19,11.40
2008,11,12,17,20,11.40
2008,11,12,17,21,11.40
2008,11,12,17,22,11.40
2008,11,12,17,23,11.40
2008,11,12,17,24,11.40
2008,11,12,17,25,11.40
2008,11,12,17,26,11.40
2008,11,12,17,27,11.40
2008,11,12,17,28,11.40
2008,11,12,17,29,11.40
2008,11,12,17,30,11.40
2008,11,12,17,31,11.40
2008,11,12,17,32,11.40
2008,11,12,17,33,11.40
2008,11,12,17,34,11.40
2008,11,12,17,35,11.40
2008,11,12,17,36,11.40
2008,11,12,17,37,11.40
2008,11,12,17,38,11.40
2008,11,12,17,39,11.40
2008,11,12,17,40,11.40
2008,11,12,17,41,11.40
2008,11,12,17,42,11.40
2008,11,12,17,43,11.40
2008,11,12,17,44,11.50
2008,11,12,17,45,11.60
2008,11,12,17,46,11.60
2008,11,12,17,47,11.60
2008,11,12,17,48,11.60
2008,11,12,17,49,11.60
2008,11,12,17,50,11.60
2008,11,12,17,51,11.60
2008,11,12,17,52,11.60
2008,11,12,17,53,11.60
2008,11,12,17,54,11.60
2008,11,12,17,55,11.60
2008,11,12,17,56,11.60
2008,11,12,17,57,11.60
2008,11,12,17,58,11.60
2008,11,12,17,59,11.60
2008,11,12,18,00,11.50
2008,11,12,18,01,11.40
2008,11,12,18,02,11.40
2008,11,12,18,03,11.40
2008,11,12,18,04,11.40
2008,11,12,18,05,11.40
2008,11,12,18,06,11.40
2008,11,12,18,07,11.40
2008,11,12,18,08,11.40
2008,11,12,18,09,11.40
2008,11,12,18,10,11.40
2008,11,12,18,11,11.40
2008,11,12,18,12,11.40
2008,11,12,18,13,11.30
2008,11,12,18,14,11.30
2008,11,12,18,15,11.30
2008,11,12,18,16,11.30
2008,11,12,18,17,11.30
2008,11,12,18,18,11.20
2008,11,12,18,19,11.20
2008,11,12,18,20,11.20
2008,11,12,18,21,11.20
2008,11,12,18,22,11.20
2008,11,12,18,23,11.20
2008,11,12,18,24,11.20
2008,11,12,18,25,11.10
2008,11,12,18,26,11.10
2008,11,12,18,27,11.10
2008,11,12,18,28,11.10
2008,11,12,18,29,11.10
2008,11,12,18,30,11.10
2008,11,12,18,31,11.10
2008,11,12,18,32,11.10
2008,11,12,18,33,11.10
2008,11,12,18,34,11.10
2008,11,12,18,35,11.10
2008,11,12,18,36,11.10
2008,11,12,18,37,11.10
2008,11,12,18,38,11.10
2008,11,12,18,39,11.10
2008,11,12,18,40,11.10
2008,11,12,18,41,11.10
2008,11,12,18,42,11.00
2008,11,12,18,43,10.90
2008,11,12,18,44,10.90
2008,11,12,18,45,10.90
2008,11,12,18,46,10.90
2008,11,12,18,47,10.90
2008,11,12,18,48,10.90
2008,11,12,18,49,10.90
2008,11,12,18,50,10.90
2008,11,12,18,51,10.90
2008,11,12,18,52,10.90
2008,11,12,18,53,10.90
2008,11,12,18,54,10.90
2008,11,12,18,55,10.90
2008,11,12,18,56,10.90
2008,11,12,18,57,10.90
2008,11,12,18,58,10.90
2008,11,12,18,59,10.90
2008,11,12,19,00,10.90
2008,11,12,19,01,10.90
2008,11,12,19,02,10.80
2008,11,12,19,03,10.80
2008,11,12,19,04,10.80
2008,11,12,19,05,10.80
2008,11,12,19,06,10.80
2008,11,12,19,07,10.80
2008,11,12,19,08,10.80
2008,11,12,19,09,10.70
2008,11,12,19,10,10.70
2008,11,12,19,11,10.70
2008,11,12,19,12,10.70
2008,11,12,19,13,10.70
2008,11,12,19,14,10.60
2008,11,12,19,15,10.60
2008,11,12,19,16,10.60
2008,11,12,19,17,10.60
2008,11,12,19,18,10.60
2008,11,12,19,19,10.60
2008,11,12,19,20,10.60
2008,11,12,19,21,10.60
2008,11,12,19,22,10.60
2008,11,12,19,23,10.60
2008,11,12,19,24,10.60
2008,11,12,19,25,10.60
2008,11,12,19,26,10.60
2008,11,12,19,27,10.50
2008,11,12,19,28,10.50
2008,11,12,19,29,10.60
2008,11,12,19,30,10.60
2008,11,12,19,31,10.50
2008,11,12,19,32,10.40
2008,11,12,19,33,10.40
2008,11,12,19,34,10.40
2008,11,12,19,35,10.40
2008,11,12,19,36,10.40
2008,11,12,19,37,10.40
2008,11,12,19,38,10.40
2008,11,12,19,39,10.40
2008,11,12,19,40,10.40
2008,11,12,19,41,10.40
2008,11,12,19,42,10.40
2008,11,12,19,43,10.40
2008,11,12,19,44,10.40
2008,11,12,19,45,10.40
2008,11,12,19,46,10.40
2008,11,12,19,47,10.40
2008,11,12,19,48,10.40
2008,11,12,19,49,10.40
2008,11,12,19,50,10.40
2008,11,12,19,51,10.40
2008,11,12,19,52,10.40
2008,11,12,19,53,10.40
2008,11,12,19,54,10.40
2008,11,12,19,55,10.40
2008,11,12,19,56,10.30
2008,11,12,19,57,10.30
2008,11,12,19,58,10.30
2008,11,12,19,59,10.30
2008,11,12,20,00,10.30
2008,11,12,20,01,10.30
2008,11,12,20,02,10.30
2008,11,12,20,03,10.30
2008,11,12,20,04,10.30
2008,11,12,20,05,10.30
2008,11,12,20,06,10.30
2008,11,12,20,07,10.30
2008,11,12,20,08,10.30
2008,11,12,20,09,10.30
2008,11,12,20,10,10.30
2008,11,12,20,11,10.30
2008,11,12,20,12,10.30
2008,11,12,20,13,10.30
2008,11,12,20,14,10.30
2008,11,12,20,15,10.20
2008,11,12,20,16,10.20
2008,11,12,20,17,10.20
2008,11,12,20,18,10.20
2008,11,12,20,19,10.20
2008,11,12,20,20,10.20
2008,11,12,20,21,10.20
2008,11,12,20,22,10.20
2008,11,12,20,23,10.20
2008,11,12,20,24,10.20
2008,11,12,20,25,10.20
2008,11,12,20,26,10.20
2008,11,12,20,27,10.10
2008,11,12,20,28,10.10
2008,11,12,20,29,10.10
2008,11,12,20,30,10.10
2008,11,12,20,31,10.10
2008,11,12,20,32,10.10
2008,11,12,20,33,10.10
2008,11,12,20,34,10.10
2008,11,12,20,35,10.10
2008,11,12,20,36,10.10
2008,11,12,20,37,10.10
2008,11,12,20,38,10.10
2008,11,12,20,39,10.10
2008,11,12,20,40,10.10
2008,11,12,20,41,10.10
2008,11,12,20,42,10.10
2008,11,12,20,43,10.10
2008,11,12,20,44,10.10
2008,11,12,20,45,10.10
2008,11,12,20,46,10.10
2008,11,12,20,47,10.00
2008,11,12,20,48,9.90
2008,11,12,20,49,9.90
2008,11,12,20,50,9.90
2008,11,12,20,51,9.90
2008,11,12,20,52,10.00
2008,11,12,20,53,10.10
2008,11,12,20,54,10.10
2008,11,12,20,55,10.10
2008,11,12,20,56,10.20
2008,11,12,20,57,10.30
2008,11,12,20,58,10.30
2008,11,12,20,59,10.40
2008,11,12,21,00,10.40
2008,11,12,21,01,10.40
2008,11,12,21,02,10.50
2008,11,12,21,03,10.60
2008,11,12,21,04,10.60
2008,11,12,21,05,10.60
2008,11,12,21,06,10.70
2008,11,12,21,07,10.70
2008,11,12,21,08,10.80
2008,11,12,21,09,10.80
2008,11,12,21,10,10.80
2008,11,12,21,11,10.90
2008,11,12,21,12,10.90
2008,11,12,21,13,10.90
2008,11,12,21,14,10.90
2008,11,12,21,15,10.90
2008,11,12,21,16,10.90
2008,11,12,21,17,10.90
2008,11,12,21,18,10.90
2008,11,12,21,19,10.90
2008,11,12,21,20,10.90
2008,11,12,21,21,10.90
2008,11,12,21,22,10.90
2008,11,12,21,23,10.80
2008,11,12,21,24,10.80
2008,11,12,21,25,10.80
2008,11,12,21,26,10.80
2008,11,12,21,27,10.80
2008,11,12,21,28,10.80
2008,11,12,21,29,10.80
2008,11,12,21,30,10.80
2008,11,12,21,31,10.90
2008,11,12,21,32,10.90
2008,11,12,21,33,10.90
2008,11,12,21,34,10.80
2008,11,12,21,35,10.80
2008,11,12,21,36,10.80
2008,11,12,21,37,10.80
2008,11,12,21,38,10.80
2008,11,12,21,39,10.80
2008,11,12,21,40,10.90
2008,11,12,21,41,10.90
2008,11,12,21,42,10.90
2008,11,12,21,43,10.90
2008,11,12,21,44,10.90
2008,11,12,21,45,10.90
2008,11,12,21,46,10.90
2008,11,12,21,47,10.90
2008,11,12,21,48,10.90
2008,11,12,21,49,10.90
2008,11,12,21,50,10.90
2008,11,12,21,51,10.90
2008,11,12,21,52,10.90
2008,11,12,21,53,10.80
2008,11,12,21,54,10.80
2008,11,12,21,55,10.80
2008,11,12,21,56,10.70
2008,11,12,21,57,10.70
2008,11,12,21,58,10.70
2008,11,12,21,59,10.70
2008,11,12,22,00,10.60
2008,11,12,22,01,10.60
2008,11,12,22,02,10.60
2008,11,12,22,03,10.60
2008,11,12,22,04,10.60
2008,11,12,22,05,10.60
2008,11,12,22,06,10.60
2008,11,12,22,08,10.60
